Home   Weather   Ny-Ålesund   Past weeks

Flag for Norway Past Weather in Ny-Ålesund, Svalbard, Norway — Yesterday and Last 2 Weeks

Now
8 °F

Frigid.


Feels Like: -7 °F
Forecast: -12 / -1 °F
Wind: 12 mph from Northwest

Location: Ny Alesund

Current Time: Dec 5, 2016 at 11:47:41 am

Latest Report: Dec 5, 2016 at 11:00 am


Visibility: N/A

Pressure: 29.85 "Hg

Humidity: 70%

Dew Point: 0 °F

Location of Ny-ÅlesundLocation

Past Weather in Ny-Ålesund — Graph

°F

Ny-Ålesund Temperature Yesterday

Maximum temperature yesterday: 22 °F (at 5:00 pm)
Minimum temperature yesterday: 15 °F (at 6:00 pm)
Average temperature yesterday: 19 °F

High & Low Weather Summary for the Past Weeks

 TemperatureHumidityPressure
High29 °F (Nov 20, 10:00 pm)90% (Nov 25, 4:00 am)30.15 "Hg (Nov 25, 4:00 am)
Low10 °F (Nov 26, 10:00 pm)43% (Dec 1, 6:00 pm)29.50 "Hg (Dec 4, 3:00 pm)
Average22 °F67%29.89 "Hg
* Reported Nov 20 10:00 am — Dec 5 10:00 am, Ny-Ålesund, Weather by CustomWeather, © 2016

Note: Actual official high and low records may vary slightly from our data, if they occured in-between our weather recording intervals... More about our weather records

Advertising

Ny-Ålesund Weather History for the Previous 24 Hours

Scroll right to see more
 ConditionsComfort  
Time TempWeatherWind HumidityBarometerVisibility
10:00 am
Mon, Dec 5
12 °FCold.9 mph66%29.80 "HgN/A
9:00 am12 °FCold.7 mph66%29.77 "HgN/A
8:00 am14 °FCold.7 mph64%29.75 "HgN/A
7:00 am14 °FOvercast.7 mph65%29.74 "Hg40 mi
6:00 am14 °FCold.7 mph63%29.73 "HgN/A
5:00 am13 °FCold.10 mph73%29.72 "HgN/A
4:00 am15 °FCold.12 mph77%29.71 "HgN/A
1:00 am18 °FCold.2 mph62%29.64 "HgN/A
12:00 am18 °FCold.3 mph56%29.63 "HgN/A
11:00 pm
Sun, Dec 4
19 °FCold.5 mph55%29.62 "HgN/A
10:00 pm19 °FCold.5 mph57%29.60 "HgN/A
9:00 pm19 °FCold.6 mph61%29.57 "HgN/A
8:00 pm15 °FCold.6 mph65%29.55 "HgN/A
7:00 pm17 °FPassing clouds.3 mph64%29.54 "Hg47 mi
6:00 pm15 °FCold.2 mph64%29.54 "HgN/A
5:00 pm22 °FCold.5 mph59%29.53 "HgN/A
4:00 pm20 °FCold.3 mph58%29.50 "HgN/A
3:00 pm19 °FCold.6 mph62%29.50 "HgN/A
2:00 pm19 °FCold.7 mph64%29.53 "HgN/A
1:00 pm20 °FScattered clouds.7 mph63%29.54 "Hg47 mi
12:00 pm19 °FCold.8 mph64%29.55 "HgN/A
11:00 am18 °FCold.7 mph65%29.57 "HgN/A
Weather by CustomWeather, © 2016

See weather overviewHow to use our weather pages